Regional Weather Roundup
Issued by NWS Sterling, VA

Home | Current Version | Previous Version | Text Only | Print | Product List | Glossary On
Versions: 1 2 3 4 5 6 7 8 9 10 11 12 13 14 15 16 17 18 19 20 21 22 23 24 25 26 27
000
ASUS41 KLWX 190010
RWRLWX

REGIONAL WEATHER ROUNDUP
NATIONAL WEATHER SERVICE BALTIMORE MD/WASHINGTON DC
800 PM EDT FRI APR 18 2014

Note: "FAIR" indicates few or no clouds below 12,000 feet
with no significant weather and/or obstructions to visibility.
 TC=TEMPERATURE CELSIUS

 * =Non NWS site. Station does not report precipitation (e.g. rain,
    snow, etc.), thunder, or fog.

DCZ001-MDZ009-015-VAZ040>042-051-053>054-190100-
WASHINGTON METRO

CITY           SKY/WX    TMP DP  RH WIND       PRES   REMARKS
WASHINGTON NAT CLOUDY    52  34  50 SE6       30.31R
DULLES         CLOUDY    50  34  54 S8        30.29R
ANDREWS AFB    CLOUDY    48  34  58 S5        30.30R
FT BELVOIR     CLOUDY    51  35  55 SE6       30.32R
QUANTICO       CLOUDY    50  37  61 S9        30.32R
COLLEGE PARK*  CLOUDY    52  34  50 SE3       30.30R
LEESBURG*      CLOUDY    54  37  54 S6        30.29R
MANASSAS*      CLOUDY    50  36  57 S3        30.30R
GAITHERSBURG*  CLOUDY    48  32  53 SE6       30.31R

$$

MDZ006>007-011-014-190100-
BALTIMORE METRO

CITY           SKY/WX    TMP DP  RH WIND       PRES   REMARKS
BWI AIRPORT    CLOUDY    49  30  48 CALM      30.29S
MD SCIENCE CTR   N/A     50  32  50 MISG      30.29F
ANNAPOLIS      CLOUDY    50  37  61 SE3       30.30S
FORT MEADE*    CLOUDY    45  34  65 CALM      30.33R

$$

MDZ012-015-019>023-190100-
MARYLAND EASTERN SHORE

CITY           SKY/WX    TMP DP  RH WIND       PRES   REMARKS
OCEAN CITY     CLOUDY    44  38  79 NE5       30.34S
SALISBURY      CLOUDY    47  38  71 E6        30.32S
BAY BRIDGE AP* CLOUDY    48  36  61 CALM      30.31R
CAMBRIDGE*     CLOUDY    52  41  66 CALM      30.30S
EASTON*        CLOUDY    50  41  71 CALM      30.33F

$$

MDZ017>025-190100-
SOUTHERN MARYLAND

CITY           SKY/WX    TMP DP  RH WIND       PRES   REMARKS
PATUXENT RIVER CLOUDY    48  38  68 CALM      30.31R
ST INIGOES     CLOUDY    48  39  71 S3        30.32R
LEONARDTOWN*   CLOUDY    46  37  71 CALM      30.32R

$$

MDZ003>005-190100-
NORTH CENTRAL MARYLAND

CITY           SKY/WX    TMP DP  RH WIND       PRES   REMARKS
FREDERICK*     CLEAR     52  37  58 VRB5      30.30S
HAGERSTOWN APT CLOUDY    52  34  50 S5        30.27R
WESTMINSTER*   CLOUDY    48  34  57 SE5       30.28S

$$

MDZ501>502-190100-
WESTERN MARYLAND

CITY           SKY/WX    TMP DP  RH WIND       PRES   REMARKS
OAKLAND*       CLOUDY    50  27  40 SE8       30.23R
CUMBERLAND*    CLOUDY    55  34  44 S5        30.28R

$$

VAZ025>031-190100-
SHENANDOAH VALLEY

CITY           SKY/WX    TMP DP  RH WIND       PRES   REMARKS
WINCHESTER*    CLOUDY    52  36  54 E5        30.26R
STAUNTON*      CLOUDY    51  38  60 SW3       30.28S

$$

WVZ021-048>050-054>055-190100-
EASTERN WEST VIRGINIA PANHANDLE

CITY           SKY/WX    TMP DP  RH WIND       PRES   REMARKS
MARTINSBURG    CLOUDY    53  34  48 CALM      30.27R
PETERSBURG*    CLOUDY    63  42  46 SE5       30.23R

$$

VAZ036>039-050-190100-
CENTRAL FOOTHILLS

CITY           SKY/WX    TMP DP  RH WIND       PRES   REMARKS
CHARLOTTESVILL CLOUDY    51  39  63 S7        30.28S
CULPEPER*      CLOUDY    54  36  50 CALM      30.30R

$$

VAZ055>057-190100-
NORTH AND CENTRAL PIEDMONT

CITY           SKY/WX    TMP DP  RH WIND       PRES   REMARKS
FREDERICKSBRG* CLOUDY    52  39  62 E3        30.31R
STAFFORD*      CLOUDY    50  38  64 SE5       30.36R

$$

NCZ024-NYZ072-PAZ021-071-VAZ022-071-190100-
OTHER REGIONAL OBSERVATIONS

CITY           SKY/WX    TMP DP  RH WIND       PRES   REMARKS
NEW YORK CITY  CLOUDY    44  31  60 MISG      30.32F
PHILADELPHIA   CLOUDY    53  30  41 CALM      30.30F
PITTSBURGH     CLOUDY    64  33  31 NW9       30.19S
ROANOKE        CLOUDY    50  39  66 SE7       30.29F
RICHMOND       CLOUDY    50  36  58 CALM      30.31R
RALEIGH        CLOUDY    56  40  55 NE6       30.26S

$$

ANZ530>537-190100-
MARINE OBSERVATIONS

STATION/POSITION TIME  TEMP    WIND        PRES
                       AIR SEA DIR/SP/G
                 (UTC) (F)     (DEG/KT/KT) (MB)
THOMAS PT LIGHT  0000   49 52  140/  3/  4 1026.6F
BALT KEY BRIDGE  0000   50     110/  4/  4 1025.9R
COVE POINT       0000   49      50/  4/  5 1026.1R
LEWISETTA        0000   49 53  160/  4/  6 1026.2R
SOLOMONS ISLAND  0000      52                N/A
PINEY POINT      0000          170/  4/  5   N/A

$$




USA.gov is the U.S. government's official web portal to all federal, state and local government web resources and services.